RPA4755 KPHL-KRDU

Flight info

Callsign RPA4755
Flight time 0h 57m
Altitude 24000
Route OOD TEBEE HAYDO TRPOD TAQLE3
Aircraft E75L/M-SDE3GILORVW/S

Departure

Time 2026-05-04 10:16
Airport Philadelphia International Airport (KPHL)

Arrival

Time 2026-05-04 11:13
Airport Raleigh-Durham International Airport (KRDU)
Time Latitude Longitude Altitude Speed Heading
2026-05-04 09:42 39.87537 -75.24102 23 ft 0 kts 237°
2026-05-04 10:08 39.87586 -75.24052 23 ft 0 kts 176°
2026-05-04 10:10 39.87571 -75.24046 23 ft 4 kts 152°
2026-05-04 10:10 39.87542 -75.24010 23 ft 7 kts 130°
2026-05-04 10:10 39.87502 -75.23949 23 ft 10 kts 140°
2026-05-04 10:10 39.87445 -75.23911 23 ft 9 kts 158°
2026-05-04 10:11 39.87404 -75.23851 23 ft 10 kts 91°
2026-05-04 10:11 39.87426 -75.23749 23 ft 13 kts 63°
2026-05-04 10:11 39.87487 -75.23657 23 ft 14 kts 44°
2026-05-04 10:11 39.87578 -75.23575 23 ft 18 kts 18°
2026-05-04 10:12 39.87698 -75.23520 23 ft 18 kts 19°
2026-05-04 10:12 39.87780 -75.23443 25 ft 14 kts 83°
2026-05-04 10:12 39.87712 -75.23365 23 ft 15 kts 159°
2026-05-04 10:12 39.87613 -75.23316 25 ft 9 kts 159°
2026-05-04 10:13 39.87552 -75.23286 23 ft 11 kts 160°
2026-05-04 10:13 39.87476 -75.23248 24 ft 13 kts 153°
2026-05-04 10:13 39.87463 -75.23152 25 ft 14 kts 75°
2026-05-04 10:13 39.87492 -75.23013 24 ft 18 kts 75°
2026-05-04 10:14 39.87523 -75.22852 23 ft 18 kts 73°
2026-05-04 10:14 39.87558 -75.22683 23 ft 20 kts 76°
2026-05-04 10:16 39.86870 -75.25713 815 ft 151 kts 252°
2026-05-04 10:16 39.86423 -75.26949 1579 ft 155 kts 232°
2026-05-04 10:16 39.85572 -75.27899 2151 ft 169 kts 212°
2026-05-04 10:16 39.84401 -75.28437 2551 ft 193 kts 195°
2026-05-04 10:17 39.83001 -75.28664 3087 ft 209 kts 190°
2026-05-04 10:17 39.81470 -75.28839 3473 ft 236 kts 189°
2026-05-04 10:19 39.68892 -75.30037 8106 ft 269 kts 188°
2026-05-04 10:19 39.67035 -75.30155 8683 ft 272 kts 188°
2026-05-04 10:19 39.65137 -75.30262 9294 ft 274 kts 187°
2026-05-04 10:19 39.63218 -75.30358 9883 ft 277 kts 187°
2026-05-04 10:20 39.61272 -75.30598 10204 ft 287 kts 193°
2026-05-04 10:20 39.59255 -75.31017 10426 ft 299 kts 193°
2026-05-04 10:20 39.57181 -75.31438 10874 ft 304 kts 193°
2026-05-04 10:20 39.55081 -75.31837 11416 ft 306 kts 192°
2026-05-04 10:21 39.52966 -75.32226 11950 ft 307 kts 192°
2026-05-04 10:21 39.50833 -75.32609 12512 ft 310 kts 192°
2026-05-04 10:21 39.48707 -75.32996 13068 ft 314 kts 192°
2026-05-04 10:21 39.46533 -75.33389 13664 ft 317 kts 192°
2026-05-04 10:22 39.42112 -75.34190 14796 ft 324 kts 193°
2026-05-04 10:22 39.39867 -75.34593 15370 ft 328 kts 193°
2026-05-04 10:22 39.37592 -75.35006 15942 ft 331 kts 193°
2026-05-04 10:23 39.35290 -75.35424 16498 ft 335 kts 193°
2026-05-04 10:23 39.32967 -75.35843 17047 ft 339 kts 193°
2026-05-04 10:25 39.16197 -75.38859 21128 ft 356 kts 194°
2026-05-04 10:25 39.13735 -75.39298 21673 ft 358 kts 194°
2026-05-04 10:25 39.11259 -75.39741 22233 ft 360 kts 194°
2026-05-04 10:25 39.08770 -75.40182 22804 ft 361 kts 195°
2026-05-04 10:26 39.06277 -75.40626 23329 ft 363 kts 195°
2026-05-04 10:26 39.03765 -75.41074 23790 ft 365 kts 196°
2026-05-04 10:26 39.01246 -75.41523 24214 ft 368 kts 196°
2026-05-04 10:26 38.98680 -75.41989 24217 ft 385 kts 195°
2026-05-04 10:27 38.95977 -75.42475 24223 ft 399 kts 195°
2026-05-04 10:27 38.93200 -75.42966 23995 ft 404 kts 194°
2026-05-04 10:27 38.90410 -75.43454 24057 ft 406 kts 194°
2026-05-04 10:27 38.87602 -75.43948 24056 ft 406 kts 195°
2026-05-04 10:28 38.84814 -75.44437 24069 ft 404 kts 195°
2026-05-04 10:28 38.82020 -75.44930 24088 ft 405 kts 195°
2026-05-04 10:28 38.79229 -75.45424 24083 ft 405 kts 195°
2026-05-04 10:28 38.76438 -75.45916 24083 ft 405 kts 195°
2026-05-04 10:29 38.73654 -75.46407 24081 ft 405 kts 195°
2026-05-04 10:29 38.70857 -75.46900 24086 ft 405 kts 195°
2026-05-04 10:29 38.68066 -75.47391 24082 ft 405 kts 195°
2026-05-04 10:29 38.65276 -75.47883 24096 ft 403 kts 196°
2026-05-04 10:30 38.62498 -75.48373 24095 ft 403 kts 196°
2026-05-04 10:30 38.59719 -75.48860 24098 ft 403 kts 196°
2026-05-04 10:30 38.56940 -75.49348 24097 ft 403 kts 196°
2026-05-04 10:30 38.54198 -75.49828 24098 ft 403 kts 196°
2026-05-04 10:31 38.51414 -75.50318 24096 ft 403 kts 196°
2026-05-04 10:31 38.48634 -75.50804 24095 ft 403 kts 196°
2026-05-04 10:32 38.32194 -75.54443 24106 ft 385 kts 212°
2026-05-04 10:33 38.29756 -75.55859 24102 ft 385 kts 213°
2026-05-04 10:33 38.27322 -75.57280 24094 ft 385 kts 213°
2026-05-04 10:33 38.24888 -75.58712 24095 ft 385 kts 213°
2026-05-04 10:33 38.22460 -75.60143 24070 ft 385 kts 213°
2026-05-04 10:34 38.20057 -75.61562 24097 ft 387 kts 213°
2026-05-04 10:34 38.17616 -75.63001 24093 ft 387 kts 213°
2026-05-04 10:34 38.15177 -75.64439 24095 ft 386 kts 213°
2026-05-04 10:34 38.12737 -75.65875 24099 ft 386 kts 213°
2026-05-04 10:35 38.10297 -75.67311 24100 ft 386 kts 213°
2026-05-04 10:35 38.07857 -75.68746 24099 ft 386 kts 213°
2026-05-04 10:35 38.05417 -75.70178 24098 ft 386 kts 213°
2026-05-04 10:35 38.02977 -75.71610 24104 ft 386 kts 213°
2026-05-04 10:36 38.00531 -75.73047 24098 ft 387 kts 213°
2026-05-04 10:36 37.98076 -75.74488 24093 ft 390 kts 213°
2026-05-04 10:36 37.95619 -75.75926 24111 ft 389 kts 213°
2026-05-04 10:36 37.93188 -75.77349 24107 ft 389 kts 213°
2026-05-04 10:37 37.90730 -75.78787 24107 ft 389 kts 213°
2026-05-04 10:37 37.88266 -75.80227 24101 ft 389 kts 213°
2026-05-04 10:37 37.85797 -75.81668 24102 ft 389 kts 213°
2026-05-04 10:37 37.83344 -75.83101 24103 ft 389 kts 213°
2026-05-04 10:39 37.68546 -75.91717 24102 ft 391 kts 213°
2026-05-04 10:39 37.66076 -75.93150 24102 ft 391 kts 213°
2026-05-04 10:39 37.63606 -75.94584 24096 ft 391 kts 213°
2026-05-04 10:40 37.61237 -75.96192 24107 ft 382 kts 223°
2026-05-04 10:40 37.59351 -75.98447 24115 ft 369 kts 236°
2026-05-04 10:40 37.57703 -76.00942 24110 ft 371 kts 236°
2026-05-04 10:40 37.56067 -76.03405 24094 ft 370 kts 236°
2026-05-04 10:41 37.54426 -76.05912 24097 ft 370 kts 236°
2026-05-04 10:41 37.52801 -76.08416 24101 ft 370 kts 236°
2026-05-04 10:41 37.51178 -76.10930 24102 ft 370 kts 236°
2026-05-04 10:41 37.49548 -76.13454 24103 ft 370 kts 236°
2026-05-04 10:42 37.47926 -76.15968 24103 ft 370 kts 236°
2026-05-04 10:42 37.46305 -76.18480 24106 ft 370 kts 236°
2026-05-04 10:42 37.44679 -76.20997 24106 ft 370 kts 236°
2026-05-04 10:42 37.43056 -76.23507 24106 ft 370 kts 236°
2026-05-04 10:43 37.41450 -76.25989 24104 ft 370 kts 236°
2026-05-04 10:44 37.30020 -76.43598 24109 ft 372 kts 236°
2026-05-04 10:45 37.28379 -76.46117 24112 ft 372 kts 236°
2026-05-04 10:45 37.26763 -76.48597 24111 ft 372 kts 236°
2026-05-04 10:45 37.25128 -76.51111 24111 ft 372 kts 236°
2026-05-04 10:45 37.23511 -76.53641 24103 ft 371 kts 237°
2026-05-04 10:46 37.21896 -76.56172 24092 ft 372 kts 237°
2026-05-04 10:46 37.20279 -76.58702 24095 ft 372 kts 237°
2026-05-04 10:46 37.18661 -76.61229 24074 ft 372 kts 236°
2026-05-04 10:46 37.17564 -76.62938 24108 ft 375 kts 236°
2026-05-04 10:47 37.15399 -76.66312 24094 ft 374 kts 236°
2026-05-04 10:47 37.14315 -76.67997 24093 ft 374 kts 236°
2026-05-04 10:47 37.12681 -76.70538 24092 ft 374 kts 236°
2026-05-04 10:47 37.11047 -76.73076 24093 ft 374 kts 236°
2026-05-04 10:49 36.99685 -76.90660 23589 ft 346 kts 237°
2026-05-04 10:49 36.98193 -76.92962 23316 ft 336 kts 237°
2026-05-04 10:50 36.96721 -76.95237 23137 ft 339 kts 237°
2026-05-04 10:51 36.86310 -77.11244 23109 ft 340 kts 236°
2026-05-04 10:52 36.84814 -77.13536 23103 ft 340 kts 237°
2026-05-04 10:52 36.83315 -77.15831 23106 ft 340 kts 237°
2026-05-04 10:52 36.81819 -77.18121 23108 ft 340 kts 236°
2026-05-04 10:54 36.71252 -77.33965 21615 ft 335 kts 236°
2026-05-04 10:54 36.69758 -77.36187 21330 ft 334 kts 236°
2026-05-04 10:56 36.59278 -77.51751 19298 ft 359 kts 235°
2026-05-04 10:56 36.57657 -77.54143 18970 ft 363 kts 234°
2026-05-04 10:56 36.56047 -77.56550 18406 ft 367 kts 237°
2026-05-04 10:57 36.54656 -77.59166 17708 ft 356 kts 244°
2026-05-04 10:57 36.53442 -77.61837 17388 ft 356 kts 244°
2026-05-04 10:57 36.52190 -77.64489 17027 ft 355 kts 243°
2026-05-04 10:57 36.50903 -77.67118 16680 ft 355 kts 243°
2026-05-04 10:58 36.49602 -77.69726 16331 ft 354 kts 242°
2026-05-04 10:58 36.48299 -77.72323 15987 ft 354 kts 242°
2026-05-04 10:58 36.46993 -77.74916 15647 ft 353 kts 242°
2026-05-04 10:58 36.45690 -77.77502 15294 ft 352 kts 242°
2026-05-04 10:59 36.44413 -77.80036 14972 ft 351 kts 242°
2026-05-04 10:59 36.43118 -77.82601 14633 ft 350 kts 242°
2026-05-04 10:59 36.41822 -77.85163 14296 ft 349 kts 242°
2026-05-04 10:59 36.40534 -77.87717 14026 ft 350 kts 242°
2026-05-04 11:00 36.39240 -77.90274 13624 ft 348 kts 242°
2026-05-04 11:01 36.30335 -78.07810 11279 ft 334 kts 241°
2026-05-04 11:02 36.29120 -78.10186 10964 ft 319 kts 241°
2026-05-04 11:02 36.27958 -78.12462 10658 ft 306 kts 241°
2026-05-04 11:05 36.14367 -78.40084 7350 ft 260 kts 241°
2026-05-04 11:06 36.13435 -78.42002 7077 ft 260 kts 241°
2026-05-04 11:06 36.12510 -78.43919 6828 ft 258 kts 241°
2026-05-04 11:06 36.11590 -78.45817 6586 ft 257 kts 241°
2026-05-04 11:06 36.10667 -78.47700 6340 ft 255 kts 240°
2026-05-04 11:08 36.03871 -78.60165 4616 ft 237 kts 224°
2026-05-04 11:10 35.97164 -78.68120 3203 ft 155 kts 227°
2026-05-04 11:12 35.92408 -78.74036 1312 ft 130 kts 226°
2026-05-04 11:12 35.91761 -78.74837 1131 ft 134 kts 225°
2026-05-04 11:12 35.91089 -78.75671 930 ft 140 kts 226°
2026-05-04 11:12 35.90408 -78.76538 744 ft 140 kts 224°
2026-05-04 11:13 35.89729 -78.77380 540 ft 140 kts 225°
2026-05-04 11:13 35.89048 -78.78221 390 ft 133 kts 225°
2026-05-04 11:13 35.88493 -78.78904 388 ft 90 kts 225°
2026-05-04 11:13 35.88168 -78.79309 391 ft 44 kts 224°
2026-05-04 11:14 35.88102 -78.79389 390 ft 32 kts 224°
2026-05-04 11:16 35.87818 -78.79361 389 ft 2 kts 133°
2026-05-04 11:16 35.87809 -78.79350 389 ft 1 kts 133°
2026-05-04 11:16 35.87807 -78.79346 389 ft 0 kts 133°